THORAD AGENA D DEB, 5388

Orbit data source: Space-Track

THORAD AGENA D DEB, 5388 is space debris in SSO originally from a launch on Wed, 08 Apr 1970 UTC launched from the Air Force Western Test Range (AFWTR). Debris objects in space refer to the collection of defunct objects orbiting the Earth. Examples of debris include non-operational satellites, rocket bodies, and fragments generated from explosions, collisions, or faulty payload assembly.

Loading next visibility...
Identifier
5388, 1970-025KT
Orbit
SSO
Country
Flag of USUS
Related business
Manufacturer
Unknown
Mission
Spacecraft
Bus & Motor
Unknown
Mass
Unknown
Launch date (UTC)
1970-04-08 (56 years ago)
Launch vehicle
Unknown
Launch site
Air Force Western Test Range (AFWTR)
Object type
Payload
Rocket body
Debris
Shape & HBR
Unknown shape, 0.1 m
Radar Cross Section
Medium (>0.1 m² and <1 m²)

Expand to show TLE details & history
Last TLE update: 11 hours ago

TLE from 11 hours ago
0 THORAD AGENA D DEB
1 05388U 70025KT  26237.76220787  .00000446  00000-0  87420-3 0  9995
2 05388  99.9296 175.7888 0137748 357.6121  31.1588 13.38340977735151
Epoch: 2026-08-25T18:17Z
TLE epoch observation values (Epoch: 2026-08-25T18:17:34.759Z)
Latitude
29.16123°
Longitude
-78.20755°
Altitude
1,030.997 km
Speed
7.382 km/s
True Right ascension
11h 20m 50s
True Declination
29° 01' 14"
Sunlit
Object was in daylight at epoch
Visualization orbit readout
Latitude
Unknown
Longitude
Unknown
Altitude
Unknown
Speed
Unknown
Apparent Right ascension
Unknown
Apparent Declination
Unknown
Sunlit
N/A
Visualization observer readout
Local Sidereal Time
20:55:08
Azimuth
Unknown
Elevation
Unknown
Doppler factor
Unknown
Orbital elements
Apogee altitude
1,215.98 km
Perigee altitude
1,009.608 km
Semi-major axis
7,490.931 km
Eccentricity
0.01377
Inclination
99.9296°
RAAN
175.7888°
Arg. of periapsis
357.6121°
True anomaly
31.9877°
Mean anomaly
31.1588°
Eccentric anomaly
31.57202°
Mean motion
3.34765 °/min
Orbital period
107.54 mins
BSTAR
0.0008742
Loading maneuver chart data...
Computing Atmospheric mass density...

Documentation

Showing up to 5 results
|